| time (UTC) | temp C | wind direction | speed KPH | gust KPH | rain 1hr cm | rain 24hr cm | rain mn cm | humidity % | barometer mb |
| 20260902203037 | 21 | 227 | 6.4 | 6.4 | 0.00 | 0.51 | 0.51 | 58 | 1093.8 |
| 20260902202017 | 21 | 224 | 6.4 | 8.0 | 0.00 | 0.51 | 0.51 | 57 | 1093.0 |
| 20260902201017 | 21 | 220 | 6.4 | 8.0 | 0.00 | 0.51 | 0.51 | 57 | 1092.3 |
| 20260902200017 | 21 | 216 | 6.4 | 8.0 | 0.00 | 0.51 | 0.51 | 56 | 1091.5 |
| 20260902195018 | 16 | 0.0 | 0.0 | 0.00 | 0.00 | 0.00 | 78 | 1020.9 | |
| 20260902194037 | 21 | 208 | 6.4 | 8.0 | 0.00 | 0.51 | 0.51 | 55 | 1090.0 |
| 20260902193017 | 20 | 204 | 6.4 | 8.0 | 0.00 | 0.51 | 0.51 | 54 | 1089.2 |
| 20260902192017 | 20 | 201 | 6.4 | 8.0 | 0.00 | 0.51 | 0.51 | 53 | 1088.4 |
| 20260902191017 | 20 | 197 | 8.0 | 8.0 | 0.00 | 0.51 | 0.51 | 53 | 1087.7 |
| 20260902190037 | 20 | 193 | 8.0 | 9.7 | 0.00 | 0.51 | 0.51 | 52 | 1086.9 |
| 20260902185037 | 20 | 189 | 8.0 | 9.7 | 0.00 | 0.51 | 0.51 | 51 | 1086.1 |
| 20260902184037 | 20 | 185 | 8.0 | 9.7 | 0.00 | 0.51 | 0.51 | 51 | 1085.3 |
| 20260902183017 | 19 | 181 | 8.0 | 9.7 | 0.00 | 0.51 | 0.51 | 50 | 1084.6 |
| 20260902182017 | 19 | 177 | 8.0 | 9.7 | 0.00 | 0.51 | 0.51 | 49 | 1083.8 |
| 20260902181017 | 18 | 173 | 8.0 | 9.7 | 0.00 | 0.51 | 0.51 | 49 | 1083.0 |
| 20260902180017 | 18 | 169 | 8.0 | 9.7 | 0.00 | 0.51 | 0.51 | 48 | 1082.2 |
| 20260902175017 | 18 | 165 | 8.0 | 11.3 | 0.00 | 0.51 | 0.51 | 48 | 1081.5 |
| 20260902174022 | 20 | 293 | 1.6 | 3.2 | 0.00 | 0.00 | 0.00 | 66 | 1019.4 |
| 20260902174017 | 18 | 161 | 9.7 | 11.3 | 0.00 | 0.51 | 0.51 | 47 | 1080.7 |
| 20260902173016 | 17 | 157 | 9.7 | 11.3 | 0.00 | 0.51 | 0.51 | 46 | 1079.9 |
| 20260902172017 | 17 | 154 | 9.7 | 11.3 | 0.00 | 0.51 | 0.51 | 46 | 1079.2 |
| 20260902171017 | 17 | 150 | 9.7 | 11.3 | 0.00 | 0.51 | 0.51 | 45 | 1078.4 |
| 20260902170017 | 16 | 146 | 9.7 | 11.3 | 0.00 | 0.51 | 0.51 | 44 | 1077.6 |
| 20260902165017 | 16 | 142 | 9.7 | 11.3 | 0.00 | 0.51 | 0.51 | 44 | 1076.9 |
| 20260902164016 | 21 | 293 | 3.2 | 8.0 | 0.00 | 0.00 | 0.00 | 62 | 1019.5 |
| 20260902163017 | 15 | 134 | 9.7 | 12.9 | 0.00 | 0.51 | 0.51 | 42 | 1075.4 |
| 20260902162017 | 15 | 131 | 9.7 | 12.9 | 0.00 | 0.51 | 0.51 | 42 | 1074.6 |
| 20260902161017 | 15 | 127 | 9.7 | 12.9 | 0.00 | 0.51 | 0.51 | 41 | 1073.9 |
| 20260902160017 | 14 | 123 | 11.3 | 12.9 | 0.00 | 0.51 | 0.51 | 41 | 1073.1 |
| 20260902155023 | 22 | 203 | 9.7 | 17.7 | 0.00 | 0.00 | 0.00 | 57 | 1019.8 |
| 20260902155017 | 13 | 119 | 11.3 | 12.9 | 0.00 | 0.51 | 0.51 | 40 | 1072.4 |
| 20260902154019 | 22 | 180 | 6.4 | 11.3 | 0.00 | 0.00 | 0.00 | 56 | 1019.7 |
| 20260902154017 | 13 | 116 | 11.3 | 12.9 | 0.00 | 0.51 | 0.51 | 39 | 1071.7 |
| 20260902153058 | 22 | 203 | 8.0 | 12.9 | 0.00 | 0.00 | 0.00 | 55 | 1019.8 |
| 20260902152037 | 12 | 108 | 11.3 | 12.9 | 0.00 | 0.51 | 0.51 | 38 | 1070.2 |
| 20260902152019 | 22 | 270 | 6.4 | 11.3 | 0.00 | 0.00 | 0.00 | 56 | 1019.8 |
| 20260902151017 | 23 | 225 | 6.4 | 14.5 | 0.00 | 0.00 | 0.00 | 57 | 1020.0 |
| 20260902150018 | 23 | 293 | 6.4 | 16.1 | 0.00 | 0.00 | 0.00 | 54 | 1020.0 |
| 20260902145018 | 23 | 270 | 6.4 | 12.9 | 0.00 | 0.00 | 0.00 | 53 | 1020.0 |
| 20260902144017 | 23 | 203 | 4.8 | 11.3 | 0.00 | 0.00 | 0.00 | 55 | 1020.0 |
| 20260902143017 | 22 | 270 | 8.0 | 16.1 | 0.00 | 0.00 | 0.00 | 56 | 1020.1 |
| 20260902142037 | 22 | 270 | 6.4 | 16.1 | 0.00 | 0.00 | 0.00 | 56 | 1020.2 |
| 20260902141017 | 8 | 84 | 12.9 | 14.5 | 0.00 | 0.51 | 0.51 | 34 | 1065.4 |
| 20260902140017 | 22 | 248 | 6.4 | 11.3 | 0.00 | 0.00 | 0.00 | 55 | 1020.2 |
| 20260902135018 | 22 | 248 | 6.4 | 12.9 | 0.00 | 0.00 | 0.00 | 54 | 1020.2 |
| 20260902134018 | 23 | 248 | 6.4 | 14.5 | 0.00 | 0.00 | 0.00 | 52 | 1020.4 |
| 20260902133017 | 7 | 71 | 12.9 | 16.1 | 0.00 | 0.51 | 0.51 | 32 | 1062.9 |
| 20260902132017 | 6 | 68 | 12.9 | 16.1 | 0.00 | 0.51 | 0.51 | 31 | 1062.2 |
| 20260902131018 | 24 | 225 | 6.4 | 14.5 | 0.00 | 0.00 | 0.00 | 52 | 1020.6 |
| 20260902130017 | 6 | 62 | 12.9 | 16.1 | 0.00 | 0.51 | 0.51 | 30 | 1061.0 |
| 20260902125038 | 22 | 180 | 6.4 | 12.9 | 0.00 | 0.00 | 0.00 | 55 | 1020.6 |
| 20260902125017 | 5 | 59 | 12.9 | 16.1 | 0.00 | 0.51 | 0.51 | 30 | 1060.5 |
| 20260902124037 | 5 | 56 | 12.9 | 16.1 | 0.00 | 0.51 | 0.51 | 29 | 1059.9 |
| 20260902124017 | 23 | 203 | 8.0 | 16.1 | 0.00 | 0.00 | 0.00 | 56 | 1020.6 |
| 20260902123017 | 4 | 53 | 14.5 | 16.1 | 0.00 | 0.51 | 0.51 | 29 | 1059.3 |
| 20260902122017 | 3 | 51 | 14.5 | 16.1 | 0.00 | 0.51 | 0.51 | 28 | 1058.8 |
| 20260902121038 | 3 | 48 | 14.5 | 16.1 | 0.00 | 0.51 | 0.51 | 28 | 1058.3 |
| 20260902121017 | 22 | 293 | 4.8 | 11.3 | 0.00 | 0.00 | 0.00 | 58 | 1020.8 |
| 20260902120037 | 23 | 203 | 9.7 | 19.3 | 0.00 | 0.00 | 0.00 | 54 | 1021.1 |
| 20260902115017 | 23 | 248 | 8.0 | 17.7 | 0.00 | 0.00 | 0.00 | 56 | 1021.3 |
| 20260902114017 | 24 | 270 | 6.4 | 16.1 | 0.00 | 0.00 | 0.00 | 54 | 1021.4 |
| 20260902113017 | 2 | 38 | 14.5 | 17.7 | 0.00 | 0.51 | 0.51 | 26 | 1056.3 |
| 20260902112017 | 22 | 225 | 9.7 | 16.1 | 0.00 | 0.00 | 0.00 | 59 | 1021.2 |
| 20260902111017 | 22 | 270 | 6.4 | 16.1 | 0.00 | 0.00 | 0.00 | 62 | 1021.4 |
| 20260902110037 | 22 | 225 | 8.0 | 16.1 | 0.00 | 0.00 | 0.00 | 61 | 1021.5 |
| 20260902110016 | 1 | 31 | 14.5 | 17.7 | 0.00 | 0.51 | 0.51 | 25 | 1054.9 |
| 20260902105017 | 1 | 29 | 14.5 | 17.7 | 0.00 | 0.51 | 0.51 | 25 | 1054.5 |
| 20260902104017 | 0 | 27 | 14.5 | 17.7 | 0.00 | 0.51 | 0.51 | 24 | 1054.0 |
| 20260902103037 | 0 | 25 | 14.5 | 17.7 | 0.00 | 0.51 | 0.51 | 24 | 1053.6 |
| 20260902102057 | 0 | 23 | 14.5 | 17.7 | 0.00 | 0.51 | 0.51 | 24 | 1053.3 |
| 20260902102022 | 22 | 180 | 6.4 | 14.5 | 0.00 | 0.00 | 0.00 | 61 | 1021.8 |
| 20260902101017 | 22 | 203 | 6.4 | 16.1 | 0.00 | 0.00 | 0.00 | 61 | 1021.7 |
| 20260902100017 | 22 | 180 | 8.0 | 12.9 | 0.00 | 0.00 | 0.00 | 62 | 1021.7 |
| 20260902095017 | 0 | 17 | 16.1 | 17.7 | 0.00 | 0.51 | 0.51 | 23 | 1052.2 |
| 20260902094017 | 0 | 16 | 16.1 | 17.7 | 0.00 | 0.51 | 0.51 | 23 | 1051.9 |
| 20260902093017 | 21 | 158 | 4.8 | 11.3 | 0.00 | 0.00 | 0.00 | 66 | 1022.0 |
| 20260902092017 | 0 | 13 | 16.1 | 19.3 | 0.00 | 0.51 | 0.51 | 22 | 1051.3 |
| 20260902091017 | 20 | 225 | 3.2 | 6.4 | 0.00 | 0.00 | 0.00 | 70 | 1022.1 |
| 20260902090017 | 19 | 158 | 1.6 | 3.2 | 0.00 | 0.00 | 0.00 | 72 | 1022.1 |
| 20260902085017 | -1 | 9 | 16.1 | 19.3 | 0.00 | 0.51 | 0.51 | 21 | 1050.5 |
| 20260902084017 | 18 | 135 | 3.2 | 9.7 | 0.00 | 0.00 | 0.00 | 73 | 1022.1 |
| 20260902083017 | -1 | 6 | 16.1 | 19.3 | 0.00 | 0.51 | 0.51 | 21 | 1050.0 |
| 20260902082017 | -1 | 5 | 16.1 | 19.3 | 0.00 | 0.51 | 0.51 | 21 | 1049.8 |
| 20260902081017 | 17 | 113 | 4.8 | 8.0 | 0.00 | 0.00 | 0.00 | 78 | 1021.9 |
| 20260902080017 | -1 | 4 | 16.1 | 19.3 | 0.00 | 0.51 | 0.51 | 21 | 1049.5 |
| 20260902075017 | -1 | 3 | 16.1 | 19.3 | 0.00 | 0.51 | 0.51 | 20 | 1049.4 |
| 20260902074017 | -1 | 2 | 16.1 | 19.3 | 0.00 | 0.51 | 0.51 | 20 | 1049.2 |
| 20260902073017 | 15 | 180 | 3.2 | 6.4 | 0.00 | 0.00 | 0.00 | 89 | 1021.7 |
| 20260902072017 | 0 | 1 | 16.1 | 19.3 | 0.00 | 0.51 | 0.51 | 20 | 1049.0 |
| 20260902071037 | 0 | 1 | 16.1 | 19.3 | 0.00 | 0.51 | 0.51 | 20 | 1048.9 |
| 20260902070036 | 13 | 203 | 1.6 | 3.2 | 0.00 | 0.00 | 0.00 | 93 | 1021.6 |
| 20260902065037 | 13 | 0.0 | 3.2 | 0.00 | 0.00 | 0.00 | 93 | 1021.6 | |
| 20260902064017 | 0 | 0 | 16.1 | 19.3 | 0.00 | 0.51 | 0.51 | 20 | 1048.8 |
| 20260902063037 | 12 | 135 | 1.6 | 3.2 | 0.00 | 0.00 | 0.00 | 94 | 1021.5 |
| 20260902062017 | 11 | 0.0 | 3.2 | 0.00 | 0.00 | 0.00 | 93 | 1021.6 | |
| 20260902061017 | 1 | 0 | 16.1 | 19.3 | 0.00 | 0.51 | 0.51 | 20 | 1048.8 |
| 20260902060017 | 1 | 0 | 16.1 | 19.3 | 0.00 | 0.51 | 0.51 | 20 | 1048.8 |
| 20260902055017 | 1 | 1 | 16.1 | 19.3 | 0.00 | 0.51 | 0.51 | 20 | 1048.9 |
| 20260902054017 | 1 | 1 | 16.1 | 19.3 | 0.00 | 0.51 | 0.51 | 20 | 1049.0 |
| 20260902053017 | 2 | 1 | 16.1 | 19.3 | 0.00 | 0.51 | 0.51 | 20 | 1049.1 |
| 20260902052017 | 2 | 2 | 16.1 | 19.3 | 0.00 | 0.51 | 0.51 | 20 | 1049.2 |
| 20260902051017 | 2 | 3 | 16.1 | 19.3 | 0.00 | 0.51 | 0.51 | 20 | 1049.3 |
| 20260902050017 | 3 | 3 | 16.1 | 19.3 | 0.00 | 0.51 | 0.51 | 21 | 1049.4 |
| 20260902045017 | 3 | 4 | 16.1 | 19.3 | 0.00 | 0.51 | 0.51 | 21 | 1049.6 |
| 20260902044017 | 3 | 5 | 16.1 | 19.3 | 0.00 | 0.51 | 0.51 | 21 | 1049.8 |
| 20260902043017 | 4 | 6 | 16.1 | 19.3 | 0.00 | 0.51 | 0.51 | 21 | 1049.9 |
| 20260902042037 | 5 | 7 | 16.1 | 19.3 | 0.00 | 0.51 | 0.51 | 21 | 1050.2 |
| 20260902041017 | 5 | 8 | 16.1 | 19.3 | 0.00 | 0.51 | 0.51 | 21 | 1050.4 |
| 20260902040017 | 5 | 9 | 16.1 | 19.3 | 0.00 | 0.51 | 0.51 | 22 | 1050.6 |
| 20260902035017 | 6 | 11 | 16.1 | 19.3 | 0.00 | 0.51 | 0.51 | 22 | 1050.9 |
| 20260902034017 | 6 | 12 | 16.1 | 19.3 | 0.00 | 0.51 | 0.51 | 22 | 1051.1 |
| 20260902033037 | 7 | 13 | 16.1 | 19.3 | 0.00 | 0.51 | 0.51 | 22 | 1051.4 |
| 20260902032017 | 7 | 15 | 16.1 | 19.3 | 0.00 | 0.51 | 0.51 | 22 | 1051.7 |
| 20260902031017 | 7 | 16 | 16.1 | 17.7 | 0.00 | 0.51 | 0.51 | 23 | 1052.0 |
| 20260902030017 | 8 | 0.0 | 0.0 | 0.00 | 0.00 | 0.00 | 92 | 1021.2 | |
| 20260902025017 | 8 | 20 | 14.5 | 17.7 | 0.00 | 0.51 | 0.51 | 23 | 1052.7 |
| 20260902024017 | 9 | 22 | 14.5 | 17.7 | 0.00 | 0.51 | 0.51 | 24 | 1053.1 |
| 20260902023037 | 10 | 24 | 14.5 | 17.7 | 0.00 | 0.51 | 0.51 | 24 | 1053.5 |
| 20260902022037 | 10 | 26 | 14.5 | 17.7 | 0.00 | 0.51 | 0.51 | 24 | 1053.9 |
| 20260902021016 | 10 | 0.0 | 1.6 | 0.00 | 0.00 | 0.00 | 92 | 1021.2 | |
| 20260902020017 | 11 | 30 | 14.5 | 17.7 | 0.00 | 0.51 | 0.51 | 25 | 1054.7 |
| 20260902015017 | 11 | 32 | 14.5 | 17.7 | 0.03 | 0.51 | 0.51 | 25 | 1055.1 |
| 20260902014040 | 10 | 0.0 | 0.0 | 0.00 | 0.00 | 0.00 | 91 | 1021.4 | |
| 20260902014037 | 12 | 34 | 14.5 | 17.7 | 0.05 | 0.51 | 0.51 | 26 | 1055.6 |
| 20260902013017 | 12 | 37 | 14.5 | 17.7 | 0.08 | 0.51 | 0.51 | 26 | 1056.0 |
| 20260902012057 | 13 | 39 | 14.5 | 17.7 | 0.10 | 0.51 | 0.51 | 27 | 1056.5 |
| 20260902011017 | 13 | 42 | 14.5 | 17.7 | 0.13 | 0.51 | 0.51 | 27 | 1057.0 |
| 20260902011015 | 10 | 0.0 | 0.0 | 0.00 | 0.00 | 0.00 | 91 | 1021.6 | |
| 20260902010017 | 13 | 44 | 14.5 | 17.7 | 0.15 | 0.51 | 0.51 | 27 | 1057.5 |
| 20260902005016 | 10 | 0.0 | 1.6 | 0.00 | 0.00 | 0.00 | 91 | 1021.8 | |
| 20260902004018 | 10 | 0.0 | 0.0 | 0.00 | 0.00 | 0.00 | 91 | 1021.7 | |
| 20260902003020 | 10 | 0.0 | 1.6 | 0.00 | 0.00 | 0.00 | 91 | 1021.5 | |
| 20260902003017 | 15 | 52 | 14.5 | 16.1 | 0.18 | 0.51 | 0.43 | 29 | 1059.1 |
| 20260902002018 | 10 | 0.0 | 0.0 | 0.00 | 0.00 | 0.00 | 91 | 1021.5 | |
| 20260902001018 | 11 | 0.0 | 0.0 | 0.00 | 0.00 | 0.00 | 90 | 1021.6 | |
| 20260902000017 | 11 | 0.0 | 0.0 | 0.00 | 0.00 | 0.00 | 90 | 1021.5 | |
| 20260901235018 | 11 | 0.0 | 0.0 | 0.00 | 0.00 | 0.00 | 90 | 1021.6 | |
| 20260901234018 | 11 | 0.0 | 0.0 | 0.00 | 0.00 | 0.00 | 90 | 1021.6 | |
| 20260901233017 | 17 | 70 | 12.9 | 16.1 | 0.15 | 0.51 | 0.25 | 32 | 1062.6 |
| 20260901232018 | 11 | 0.0 | 0.0 | 0.00 | 0.00 | 0.00 | 90 | 1021.4 | |
| 20260901231018 | 11 | 0.0 | 0.0 | 0.00 | 0.00 | 0.00 | 89 | 1021.5 | |
| 20260901230017 | 18 | 79 | 12.9 | 14.5 | 0.18 | 0.51 | 0.18 | 33 | 1064.5 |
| 20260901225037 | 18 | 83 | 12.9 | 14.5 | 0.15 | 0.51 | 0.15 | 34 | 1065.1 |
| 20260901225017 | 11 | 0.0 | 0.0 | 0.00 | 0.03 | 0.00 | 89 | 1021.6 | |
| 20260901224019 | 11 | 0.0 | 0.0 | 0.00 | 0.03 | 0.00 | 89 | 1021.5 | |
| 20260901223057 | 11 | 0.0 | 0.0 | 0.00 | 0.03 | 0.00 | 88 | 1021.4 | |
| 20260901222037 | 20 | 93 | 11.3 | 14.5 | 0.08 | 0.51 | 0.08 | 35 | 1067.1 |
| 20260901221017 | 20 | 96 | 11.3 | 14.5 | 0.05 | 0.51 | 0.05 | 36 | 1067.8 |
| 20260901220018 | 12 | 0.0 | 0.0 | 0.00 | 0.03 | 0.03 | 87 | 1021.4 | |
| 20260901215037 | 20 | 103 | 11.3 | 14.5 | 0.00 | 0.51 | 0.51 | 37 | 1069.2 |
| 20260901214037 | 20 | 107 | 11.3 | 12.9 | 0.00 | 0.51 | 0.51 | 38 | 1069.9 |
| 20260901213017 | 20 | 110 | 11.3 | 12.9 | 0.00 | 0.51 | 0.51 | 38 | 1070.6 |
| 20260901212137 | 20 | 114 | 11.3 | 12.9 | 0.00 | 0.51 | 0.51 | 39 | 1071.3 |
| 20260901211017 | 21 | 118 | 11.3 | 12.9 | 0.00 | 0.51 | 0.51 | 40 | 1072.0 |
| 20260901210057 | 21 | 121 | 11.3 | 12.9 | 0.00 | 0.51 | 0.51 | 40 | 1072.8 |
| 20260901205017 | 21 | 125 | 11.3 | 12.9 | 0.00 | 0.51 | 0.51 | 41 | 1073.5 |
| 20260901204017 | 21 | 129 | 9.7 | 12.9 | 0.00 | 0.51 | 0.51 | 41 | 1074.3 |